STARLINK-30716, 57936

Orbit data source: Space-Track

STARLINK-30716, 57936 is a payload satellite owned by SpaceX/Seattle (US) in LEO that was launched on Mon, 25 Sep 2023 UTC via an FALCON 9 launch vehicle from the Air Force Western Test Range (AFWTR). Payload-class satellites include a variety of spacecraft equipped with specific instruments for various scientific and technological missions. These include communications satellites like Starlink; space stations such as the ISS; scientific satellites like the Hubble; Earth observation satellites from companies like Planet Labs, Umbra, and HawkEye 360; GPS; miniature CubeSats for education and research; and military/defense satellites.

Loading next visibility...
Identifier
57936, 2023-148B
Orbit
LEO
Country
Flag of USUS
Related business
Manufacturer
SpaceX/Seattle
Mission
Operational Commercial Communications
Bus & Motor
STARLINK V2M, Unknown motor
Mass
730 kg wet, ~700 kg dry
Launch date (UTC)
2023-09-25 (3 years ago)
Launch vehicle
FALCON 9
Launch site
Air Force Western Test Range (AFWTR)
Object type
Payload
Rocket body
Debris
Shape & HBR
Box + 2 Pan, 17.7 m
Radar Cross Section
33.884 m², Large (>1 m²)

Expand to show TLE details & history
Last TLE update: 3 days ago

TLE from 3 days ago
0 STARLINK-30716
1 57936U 23148B   26170.54478382 -.00000298  00000-0  20747-5 0  9990
2 57936  53.1615 271.3214 0001249 101.5461 258.5680 15.30188631154018
Epoch: 2026-06-19T13:04Z
TLE epoch observation values (Epoch: 2026-06-19T13:04:29.322Z)
Latitude
-0°
Longitude
167.42699°
Altitude
476.319 km
Speed
7.629 km/s
True Right ascension
18h 05m 17s
True Declination
0° 00' 00"
Sunlit
Object was in full shadow at epoch
Visualization orbit readout
Latitude
Unknown
Longitude
Unknown
Altitude
Unknown
Speed
Unknown
Apparent Right ascension
Unknown
Apparent Declination
Unknown
Sunlit
N/A
Visualization observer readout
Local Sidereal Time
00:29:41
Azimuth
Unknown
Elevation
Unknown
Doppler factor
Unknown
Orbital elements
Apogee altitude
476.361 km
Perigee altitude
474.649 km
Semi-major axis
6,853.642 km
Eccentricity
0.00012
Inclination
53.1615°
RAAN
271.3214°
Arg. of periapsis
101.5461°
True anomaly
258.55397°
Mean anomaly
258.568°
Eccentric anomaly
258.56099°
Mean motion
3.82526 °/min
Orbital period
94.11 mins
BSTAR
0.0000020747
Loading maneuver chart data...
Computing Atmospheric mass density...
Loading historical data...
Loading historical data...
Loading historical data...
Loading historical data...
Loading historical data...
Loading historical data...
Loading historical data...

Documentation

Showing up to 5 results
|